[[{"header":{"parameterUnit":"m.s-1","parameterCategory":1,"la1":30.2991,"la2":30.254,"lo1":-89.0895,"lo2":-89.0444,"dy":0.0017,"dx":0.0017,"nx":28,"ny":28,"refTime":"2025-08-22T03:00:00:Z","depth":0,"parameterNumber":2,"parameterNumberName":"U-component_of_WINDS"},"data":[0,0,0,0,0,0,0,0,0,0,0,0,0,0,0,0,0,0,0,0,0,0,0,0,0,0,0,0,0,0,0,0,0,0,0,0,0,0,0,0,0,0,0,0,0,0,0,0,0,0,0,0,0,0,0,0,0,0,-0.9211,-0.9211,0,-0.9226,-0.9227,-0.9227,-0.9232,-0.9232,-0.9232,-0.9232,-0.9247,-0.9248,-0.9248,0,0,0,0,0,0,0,0,0,0,0,0,0,-0.9186,-0.9186,-0.9211,-0.9211,-0.9211,-0.9226,-0.9227,-0.9227,-0.9232,-0.9232,-0.9232,-0.9232,-0.9247,-0.9248,-0.9248,0,0,0,0,0,0,0,0,0,0,0,0,0,-0.9199,-0.9187,-0.9211,-0.9216,-0.9216,-0.9226,-0.9227,-0.9227,-0.9232,-0.9232,-0.9232,-0.9232,-0.9247,-0.9248,-0.9249,-0.9255,0,0,-0.9251,-0.9251,0,0,0,0,0,0,0,0,-0.9198,-0.92,-0.9215,-0.9215,-0.9216,-0.9227,-0.9224,-0.9236,-0.9232,-0.9226,-0.9232,-0.9232,-0.9241,-0.9242,-0.9245,-0.9256,-0.9256,-0.9251,-0.9251,-0.9252,-0.9252,0,0,0,0,0,0,0,-0.9197,-0.9199,-0.9217,-0.9215,-0.9216,-0.9217,-0.9219,-0.9226,-0.9234,-0.9227,-0.9227,-0.9229,-0.9241,-0.9244,-0.9246,-0.9256,-0.9251,-0.9251,-0.9252,-0.9252,-0.9273,-0.9273,0,0,0,0,0,0,-0.9195,-0.9198,-0.9217,-0.9218,-0.9207,-0.9218,-0.922,-0.9224,-0.9234,-0.9235,-0.9229,-0.9229,-0.9243,-0.9245,-0.9246,-0.9254,-0.9252,-0.9252,-0.9253,-0.9273,-0.9273,-0.9273,0,0,0,0,0,0,-0.9195,-0.9197,-0.9216,-0.9208,-0.921,-0.9218,-0.9223,-0.9224,-0.9227,-0.9235,-0.9237,-0.9231,-0.9243,-0.9245,-0.9253,-0.9255,-0.9253,-0.9253,-0.9273,-0.9273,-0.9273,-0.9271,0,0,0,0,0,0,-0.9194,-0.9197,-0.9199,-0.9208,-0.9211,-0.9222,-0.9223,-0.9224,-0.9229,-0.9229,-0.9238,-0.9239,-0.9243,-0.9252,-0.9253,-0.9256,-0.9254,-0.9273,-0.9273,-0.9273,-0.9271,-0.9271,-0.9271,0,0,0,0,0,-0.9193,-0.9198,-0.9199,-0.9201,-0.9214,-0.9222,-0.9224,-0.9229,-0.9229,-0.9231,-0.9236,-0.9239,-0.9254,-0.9252,-0.9254,-0.9257,-0.9273,-0.9273,-0.9273,-0.9271,-0.9271,-0.9271,0,0,0,0,0,0,-0.9189,-0.9199,-0.9201,-0.9208,-0.9214,-0.9223,-0.9227,-0.9229,-0.9235,-0.9235,-0.9241,-0.9243,-0.925,-0.9254,-0.9252,-0.9264,-0.9264,-0.9264,-0.9261,-0.9261,-0.9261,-0.926,-0.9254,0,0,0,0,0,-0.9189,-0.9195,-0.9203,-0.9209,-0.9212,-0.9219,-0.9223,-0.9226,-0.9232,-0.9235,-0.9241,-0.9247,-0.9253,-0.9258,-0.9264,-0.9271,-0.9273,-0.9274,-0.9274,-0.9274,-0.9275,-0.9279,-0.928,-0.9274,-0.9274,-0.9274,0,0,-0.9189,-0.9195,-0.9198,-0.9209,-0.9214,-0.922,-0.9221,-0.9227,-0.9232,-0.9236,-0.9244,-0.9248,-0.9255,-0.9263,-0.9267,-0.9267,-0.9277,-0.9275,-0.9275,-0.9275,-0.928,-0.928,-0.9281,-0.9275,-0.9275,-0.9274,0,0,-0.9192,-0.9197,-0.9203,-0.9208,-0.9216,-0.922,-0.9222,-0.923,-0.9233,-0.9241,-0.9244,-0.925,-0.926,-0.9266,-0.927,-0.9275,-0.9277,-0.9277,-0.9278,-0.9282,-0.9282,-0.9283,-0.9285,-0.9285,-0.9277,-0.9277,-0.9277,0,-0.9191,-0.92,-0.9205,-0.9212,-0.9216,-0.922,-0.9226,-0.9231,-0.924,-0.9243,-0.9243,-0.9257,-0.9262,-0.9271,-0.9272,-0.9275,-0.9277,-0.9276,-0.9282,-0.9282,-0.9283,-0.9285,-0.9286,-0.9277,-0.9277,-0.9277,-0.9277,0,-0.9199,-0.9205,-0.9209,-0.9218,-0.9222,-0.9228,-0.9234,-0.9239,-0.9241,-0.9246,-0.9254,-0.926,-0.9268,-0.927,-0.9273,-0.928,-0.928,-0.9281,-0.9281,-0.9283,-0.9285,-0.9286,-0.9277,-0.9277,-0.9277,-0.9277,0,0,-0.92,-0.9212,-0.9213,-0.9217,-0.9226,-0.9231,-0.9237,-0.9245,-0.9248,-0.9255,-0.926,-0.9269,-0.927,-0.9275,-0.9278,-0.9282,-0.9286,-0.9282,-0.9283,-0.9283,-0.9294,-0.9293,-0.9294,-0.9287,-0.9288,-0.9288,-0.9293,0,-0.9204,-0.9215,-0.922,-0.9229,-0.9235,-0.9239,-0.9244,-0.925,-0.9255,-0.926,-0.9265,-0.9272,-0.9273,-0.9275,-0.9279,-0.9285,-0.9288,-0.9284,-0.9293,-0.9293,-0.9291,-0.9295,-0.9294,-0.9299,-0.9294,-0.9294,-0.9294,0,-0.9211,-0.9217,-0.9227,-0.9235,-0.9238,-0.9242,-0.925,-0.9255,-0.9262,-0.9265,-0.927,-0.9274,-0.928,-0.928,-0.9289,-0.9286,-0.929,-0.9293,-0.9294,-0.9295,-0.9294,-0.9296,-0.9301,-0.9301,-0.9295,-0.9295,-0.9295,0,-0.921,-0.9221,-0.9229,-0.9232,-0.9242,-0.9245,-0.9249,-0.9256,-0.9261,-0.9267,-0.927,-0.9277,-0.9281,-0.9287,-0.9292,-0.9291,-0.9301,-0.9301,-0.9304,-0.9304,-0.9306,-0.9306,-0.9311,-0.9308,-0.9308,-0.9308,-0.9308,0,-0.9215,-0.9221,-0.9229,-0.9233,-0.924,-0.9245,-0.9252,-0.9256,-0.9262,-0.9268,-0.9272,-0.9277,-0.9283,-0.9289,-0.9294,-0.9301,-0.9303,-0.9305,-0.9306,-0.9305,-0.9305,-0.9308,-0.9307,-0.9308,-0.9308,-0.9308,-0.9308,0,-0.9216,-0.9222,-0.923,-0.9238,-0.9241,-0.9245,-0.9253,-0.9257,-0.9262,-0.9269,-0.927,-0.9278,-0.9285,-0.9291,-0.93,-0.9303,-0.9311,-0.9312,-0.9308,-0.9309,-0.9312,-0.9311,-0.9319,-0.9321,-0.9316,-0.9316,-0.9317,0,-0.9218,-0.9223,-0.9232,-0.9236,-0.924,-0.9246,-0.9251,-0.9257,-0.9261,-0.927,-0.9273,-0.9281,-0.9287,-0.9298,-0.9304,-0.9312,-0.9313,-0.9315,-0.9314,-0.9313,-0.9313,-0.9313,-0.9314,-0.9316,-0.9316,-0.9316,-0.9316,0,-0.9222,-0.9225,-0.9231,-0.9238,-0.9244,-0.925,-0.9256,-0.9259,-0.9266,-0.9271,-0.9278,-0.9283,-0.9293,-0.93,-0.9308,-0.9313,-0.9315,-0.9316,-0.9317,-0.9316,-0.9314,-0.9315,-0.9309,-0.9316,-0.9316,-0.9316,-0.9316,-0.9316,-0.9224,-0.9229,-0.9236,-0.9243,-0.9248,-0.9253,-0.9258,-0.9263,-0.927,-0.9278,-0.9281,-0.9289,-0.9296,-0.9307,-0.9311,-0.9317,-0.9318,-0.9319,-0.932,-0.932,-0.932,-0.9313,-0.9319,-0.9319,-0.9319,-0.9319,-0.9319,0,-0.9229,-0.9233,-0.924,-0.9248,-0.9254,-0.9256,-0.9263,-0.9267,-0.9274,-0.928,-0.9286,-0.9295,-0.9302,-0.9309,-0.9317,-0.932,-0.9322,-0.9322,-0.9322,-0.9323,-0.9319,-0.9318,-0.9321,-0.9321,-0.9321,-0.9321,-0.9321,-0.9321,-0.9231,-0.9239,-0.9242,-0.9252,-0.9257,-0.9265,-0.9268,-0.9274,-0.9279,-0.9288,-0.9294,-0.9299,-0.9305,-0.9314,-0.932,-0.9322,-0.9325,-0.9325,-0.9327,-0.9324,-0.9323,-0.9323,-0.9322,-0.9326,-0.9326,-0.9331,-0.9331,-0.9331]},{"header":{"parameterUnit":"m.s-1","parameterCategory":1,"la1":30.2991,"la2":30.254,"lo1":-89.0895,"lo2":-89.0444,"dy":0.0017,"dx":0.0017,"nx":28,"ny":28,"refTime":"2025-08-22T03:00:00:Z","depth":0,"parameterNumber":3,"parameterNumberName":"V-component_of_WINDS"},"data":[0,0,0,0,0,0,0,0,0,0,0,0,0,0,0,0,0,0,0,0,0,0,0,0,0,0,0,0,0,0,0,0,0,0,0,0,0,0,0,0,0,0,0,0,0,0,0,0,0,0,0,0,0,0,0,0,0,0,-0.4909,-0.4909,0,-0.4876,-0.4876,-0.4875,-0.4852,-0.4852,-0.4852,-0.4852,-0.4819,-0.4818,-0.4818,0,0,0,0,0,0,0,0,0,0,0,0,0,-0.4953,-0.4952,-0.4909,-0.4909,-0.4908,-0.4876,-0.4876,-0.4875,-0.4852,-0.4852,-0.4852,-0.4852,-0.4819,-0.4818,-0.4818,0,0,0,0,0,0,0,0,0,0,0,0,0,-0.4929,-0.4952,-0.4909,-0.4893,-0.4891,-0.4876,-0.4876,-0.4875,-0.4852,-0.4852,-0.4852,-0.4851,-0.4819,-0.4818,-0.4817,-0.4817,0,0,-0.4814,-0.4814,0,0,0,0,0,0,0,0,-0.493,-0.4927,-0.4896,-0.4894,-0.4892,-0.4868,-0.4879,-0.4856,-0.4852,-0.4867,-0.4852,-0.4851,-0.4836,-0.4833,-0.4828,-0.4815,-0.4814,-0.4814,-0.4814,-0.4813,-0.4813,0,0,0,0,0,0,0,-0.4932,-0.4928,-0.4896,-0.4895,-0.4893,-0.4888,-0.4884,-0.4875,-0.4853,-0.4866,-0.4864,-0.486,-0.4834,-0.4829,-0.4827,-0.4813,-0.4814,-0.4813,-0.4813,-0.4812,-0.48,-0.48,0,0,0,0,0,0,-0.4936,-0.493,-0.4897,-0.4895,-0.4911,-0.4887,-0.4883,-0.4876,-0.4853,-0.485,-0.4861,-0.4859,-0.4831,-0.4828,-0.4825,-0.4824,-0.4813,-0.4812,-0.4812,-0.48,-0.48,-0.48,0,0,0,0,0,0,-0.4937,-0.4933,-0.4898,-0.4912,-0.4907,-0.4887,-0.4879,-0.4875,-0.487,-0.4849,-0.4846,-0.4859,-0.483,-0.4827,-0.4819,-0.4823,-0.4812,-0.4811,-0.4799,-0.48,-0.48,-0.4821,0,0,0,0,0,0,-0.4938,-0.4934,-0.4933,-0.4912,-0.4906,-0.4892,-0.4879,-0.4875,-0.4868,-0.4866,-0.4847,-0.4843,-0.483,-0.4821,-0.4818,-0.4821,-0.481,-0.4799,-0.48,-0.48,-0.482,-0.4822,-0.4824,0,0,0,0,0,-0.494,-0.494,-0.4933,-0.4929,-0.4905,-0.4893,-0.4889,-0.4874,-0.4868,-0.4867,-0.4855,-0.4844,-0.4823,-0.482,-0.4817,-0.482,-0.4799,-0.4799,-0.48,-0.4819,-0.4822,-0.4824,0,0,0,0,0,0,-0.4961,-0.4937,-0.4929,-0.4922,-0.4909,-0.4889,-0.4887,-0.4877,-0.4866,-0.4865,-0.4846,-0.4842,-0.4837,-0.4827,-0.4825,-0.4819,-0.4809,-0.4809,-0.4825,-0.4827,-0.4829,-0.4832,-0.4809,0,0,0,0,0,-0.4965,-0.4957,-0.4936,-0.4932,-0.4926,-0.4908,-0.4902,-0.4891,-0.4878,-0.4872,-0.4859,-0.4847,-0.4837,-0.4832,-0.4822,-0.4818,-0.4815,-0.4819,-0.4821,-0.4822,-0.4823,-0.4822,-0.4824,-0.4803,-0.4803,-0.4803,0,0,-0.4973,-0.4959,-0.4954,-0.4936,-0.4925,-0.4917,-0.4903,-0.4896,-0.489,-0.4871,-0.4863,-0.4853,-0.4838,-0.4833,-0.483,-0.4825,-0.4828,-0.4823,-0.4825,-0.4824,-0.4823,-0.4825,-0.4826,-0.4803,-0.4803,-0.4803,0,0,-0.4984,-0.4971,-0.4967,-0.4957,-0.4941,-0.4929,-0.4928,-0.4909,-0.4902,-0.4893,-0.4879,-0.4873,-0.4857,-0.4847,-0.484,-0.4849,-0.4839,-0.4846,-0.4857,-0.4856,-0.4858,-0.4859,-0.4863,-0.4865,-0.4847,-0.4847,-0.4847,0,-0.4996,-0.4983,-0.4967,-0.496,-0.4953,-0.4935,-0.4932,-0.4922,-0.4904,-0.49,-0.4894,-0.4875,-0.4864,-0.4857,-0.4859,-0.4853,-0.4853,-0.4849,-0.4859,-0.486,-0.4861,-0.4865,-0.4866,-0.4848,-0.4848,-0.4848,-0.4847,0,-0.4999,-0.4991,-0.499,-0.4973,-0.4966,-0.496,-0.4944,-0.4938,-0.4928,-0.4917,-0.491,-0.4896,-0.4884,-0.4881,-0.4871,-0.4873,-0.4871,-0.4862,-0.4853,-0.4864,-0.4868,-0.4869,-0.4849,-0.4849,-0.4849,-0.4848,0,0,-0.5022,-0.4997,-0.4997,-0.4989,-0.4971,-0.4965,-0.4959,-0.4947,-0.4944,-0.4932,-0.4928,-0.4915,-0.4907,-0.49,-0.4889,-0.4888,-0.4897,-0.4879,-0.4879,-0.4884,-0.49,-0.4907,-0.4909,-0.489,-0.489,-0.489,-0.4901,0,-0.5031,-0.502,-0.5005,-0.5,-0.4993,-0.4977,-0.4972,-0.4961,-0.4951,-0.4944,-0.4932,-0.4924,-0.4914,-0.491,-0.4908,-0.4896,-0.49,-0.4895,-0.4887,-0.4887,-0.4892,-0.491,-0.4918,-0.4929,-0.4903,-0.4903,-0.4903,0,-0.5039,-0.5029,-0.5023,-0.5006,-0.5003,-0.4999,-0.4987,-0.4981,-0.4968,-0.4961,-0.4953,-0.4941,-0.4935,-0.4927,-0.4919,-0.4916,-0.4912,-0.4906,-0.4906,-0.4906,-0.4896,-0.4911,-0.4932,-0.4934,-0.4905,-0.4904,-0.4904,0,-0.5058,-0.5042,-0.5037,-0.5031,-0.5011,-0.5009,-0.5001,-0.4988,-0.4982,-0.4972,-0.4969,-0.4958,-0.4953,-0.4945,-0.4932,-0.4926,-0.4926,-0.4916,-0.4921,-0.4922,-0.4922,-0.4923,-0.4944,-0.4918,-0.4918,-0.4918,-0.4918,0,-0.507,-0.5067,-0.5045,-0.5042,-0.5039,-0.5022,-0.502,-0.501,-0.4999,-0.4994,-0.4979,-0.4975,-0.4957,-0.4951,-0.494,-0.4937,-0.4934,-0.4929,-0.4926,-0.4931,-0.4932,-0.4928,-0.4928,-0.4919,-0.4918,-0.4918,-0.4918,0,-0.509,-0.5075,-0.5069,-0.5051,-0.5046,-0.5045,-0.503,-0.5027,-0.5016,-0.501,-0.5008,-0.4991,-0.4984,-0.4969,-0.4957,-0.495,-0.495,-0.4944,-0.4954,-0.4952,-0.4959,-0.4959,-0.4979,-0.4982,-0.4954,-0.4954,-0.4954,0,-0.5099,-0.5096,-0.5078,-0.5074,-0.5067,-0.506,-0.5054,-0.5038,-0.5033,-0.5019,-0.5018,-0.5009,-0.5002,-0.4991,-0.4978,-0.4969,-0.4964,-0.4972,-0.4963,-0.4968,-0.4966,-0.4966,-0.4967,-0.4974,-0.4974,-0.4975,-0.4975,0,-0.5116,-0.511,-0.5102,-0.5092,-0.5085,-0.5077,-0.5067,-0.5065,-0.5047,-0.5042,-0.5034,-0.5029,-0.5017,-0.5009,-0.4999,-0.4991,-0.4981,-0.4978,-0.4979,-0.4984,-0.499,-0.4988,-0.4961,-0.4978,-0.4977,-0.4977,-0.4977,-0.4977,-0.5132,-0.5129,-0.5117,-0.5109,-0.5101,-0.5093,-0.5089,-0.5078,-0.5072,-0.5061,-0.5052,-0.5046,-0.5034,-0.5019,-0.5012,-0.5007,-0.5002,-0.5003,-0.5004,-0.5005,-0.5007,-0.499,-0.5005,-0.5005,-0.5005,-0.5005,-0.5005,0,-0.515,-0.5141,-0.5134,-0.5122,-0.5116,-0.5107,-0.5096,-0.5092,-0.5087,-0.5077,-0.507,-0.5062,-0.5054,-0.5041,-0.5033,-0.5032,-0.5027,-0.503,-0.5031,-0.503,-0.5011,-0.5012,-0.5034,-0.5034,-0.5034,-0.5034,-0.5034,-0.5034,-0.5158,-0.5154,-0.5146,-0.5139,-0.513,-0.5124,-0.5119,-0.5112,-0.5104,-0.5096,-0.509,-0.5081,-0.5071,-0.5062,-0.5055,-0.5051,-0.5049,-0.5055,-0.505,-0.5033,-0.503,-0.5028,-0.5028,-0.5054,-0.5054,-0.5068,-0.5068,-0.5068]}]]